DW0414 Weather Reports


time (UTC)temp
C
wind
direction
speed
KPH
gust
KPH
rain 1hr
cm
rain 24hr
cm
rain mn
cm
humidity
%
barometer
mb
20260906231606 23 250 6.4 30.6 0.00 0.00 0.00 27 1015.0
20260906230058 24 134 9.7 24.1 0.00 0.00 0.00 26 1014.7
20260906224601 23 146 6.4 25.7 0.00 0.00 0.00 25 1014.7
20260906223107 24 285 9.7 27.4 0.00 0.00 0.00 25 1014.9
20260906221605 23 288 12.9 27.4 0.00 0.00 0.00 24 1014.7
20260906220104 24 246 9.7 22.5 0.00 0.00 0.00 24 1014.8
20260906214604 24 205 9.7 17.7 0.00 0.00 0.00 24 1015.3
20260906213058 25 205 6.4 20.9 0.00 0.00 0.00 23 1015.4
20260906211558 25 210 3.2 25.7 0.00 0.00 0.00 24 1015.4
20260906204602 24 222 1.6 12.9 0.00 0.00 0.00 23 1015.5
20260906203054 24 230 8.0 20.9 0.00 0.00 0.00 25 1015.5
20260906201554 23 257 4.8 22.5 0.00 0.00 0.00 26 1015.9
20260906194606 23 177 8.0 19.3 0.00 0.00 0.00 27 1016.4
20260906193056 23 319 12.9 29.0 0.00 0.00 0.00 26 1016.5
20260906191554 23 255 8.0 22.5 0.00 0.00 0.00 27 1016.8
20260906190058 23 295 9.7 20.9 0.00 0.00 0.00 26 1017.1
20260906184556 22 234 11.3 27.4 0.00 0.00 0.00 27 1017.4
20260906183103 22 248 11.3 22.5 0.00 0.00 0.00 28 1017.5
20260906181604 22 201 6.4 22.5 0.00 0.00 0.00 29 1017.7
20260906180121 21 257 11.3 24.1 0.00 0.00 0.00 28 1018.0
20260906174614 21 273 6.4 14.5 0.00 0.00 0.00 30 1018.3
20260906173054 21 248 4.8 16.1 0.00 0.00 0.00 30 1018.5
20260906171612 20 212 1.6 4.8 0.00 0.00 0.00 37 1018.7
20260906164555 18 129 0.0 3.2 0.00 0.00 0.00 42 1018.7
20260906163058 17 210 0.0 4.8 0.00 0.00 0.00 46 1019.0
20260906161621 16 46 0.0 3.2 0.00 0.00 0.00 49 1019.2
20260906154559 14 238 3.2 6.4 0.00 0.00 0.00 54 1019.5
20260906153112 13 176 0.0 1.6 0.00 0.00 0.00 56 1019.5
20260906151557 13 0 0.0 3.2 0.00 0.00 0.00 56 1019.4
20260906150107 11 0 0.0 1.6 0.00 0.00 0.00 59 1019.5
20260906144554 9 0 0.0 1.6 0.00 0.00 0.00 67 1019.7
20260906143059 6 0 0.0 1.6 0.00 0.00 0.00 72 1019.8
20260906141617 5 0 0.0 1.6 0.00 0.00 0.00 78 1019.7
20260906140055 3 23 0.0 1.6 0.00 0.00 0.00 81 1019.9
20260906134559 1 0 0.0 1.6 0.00 0.00 0.00 87 1019.9
20260906133105 0 199 0.0 1.6 0.00 0.00 0.00 87 1019.9
20260906131606 0 0 0.0 0.0 0.00 0.00 0.00 87 1019.8
20260906130059 0 0 0.0 0.0 0.00 0.00 0.00 87 1019.8
20260906124606 1 0 0.0 6.4 0.00 0.00 0.00 86 1019.8
20260906123107 1 0 0.0 6.4 0.00 0.00 0.00 85 1019.7
20260906121614 1 72 0.0 4.8 0.00 0.00 0.00 85 1019.4
20260906120108 1 0 1.6 1.6 0.00 0.00 0.00 84 1019.4
20260906114558 2 15 0.0 1.6 0.00 0.00 0.00 83 1019.7
20260906113055 2 0 0.0 1.6 0.00 0.00 0.00 82 1019.4
20260906111553 2 0 0.0 1.6 0.00 0.00 0.00 82 1019.4
20260906110057 3 0 0.0 0.0 0.00 0.00 0.00 82 1019.2
20260906104557 2 0 0.0 0.0 0.00 0.00 0.00 81 1019.2
20260906103054 2 0 0.0 0.0 0.00 0.00 0.00 81 1018.8
20260906101600 2 0 0.0 0.0 0.00 0.00 0.00 80 1018.7
20260906100058 3 0 0.0 0.0 0.00 0.00 0.00 79 1018.6
20260906094603 3 0 0.0 0.0 0.00 0.00 0.00 78 1018.8
20260906093056 3 0 0.0 0.0 0.00 0.00 0.00 78 1018.7
20260906091554 3 0 0.0 1.6 0.00 0.00 0.00 76 1018.7
20260906090101 4 0 0.0 1.6 0.00 0.00 0.00 74 1018.7
20260906084558 5 0 0.0 1.6 0.00 0.00 0.00 74 1018.7
20260906083103 5 0 0.0 1.6 0.00 0.00 0.00 73 1018.8
20260906081554 5 26 0.0 3.2 0.00 0.00 0.00 72 1019.0
20260906080059 6 348 1.6 3.2 0.00 0.00 0.00 69 1019.0
20260906074556 6 82 1.6 4.8 0.00 0.00 0.00 68 1019.2
20260906073100 6 318 0.0 8.0 0.00 0.00 0.00 67 1019.1
20260906071555 6 0 0.0 3.2 0.00 0.00 0.00 67 1019.2
20260906070057 6 75 0.0 4.8 0.00 0.00 0.00 67 1019.4
20260906064554 6 0 0.0 1.6 0.00 0.00 0.00 67 1019.4
20260906063057 6 273 0.0 1.6 0.00 0.00 0.00 67 1019.4
20260906061556 7 0 0.0 1.6 0.00 0.00 0.00 64 1019.4
20260906060132 7 0 0.0 1.6 0.00 0.00 0.00 66 1019.6
20260906054603 7 75 0.0 6.4 0.00 0.00 0.00 64 1019.7
20260906053057 7 305 3.2 4.8 0.00 0.00 0.00 63 1019.8
20260906051558 7 0 0.0 1.6 0.00 0.00 0.00 64 1019.7
20260906050055 7 0 0.0 3.2 0.00 0.00 0.00 63 1019.4
20260906044559 7 77 1.6 3.2 0.00 0.00 0.00 62 1019.4
20260906043054 8 283 0.0 3.2 0.00 0.00 0.00 59 1019.6
20260906041553 8 0 0.0 1.6 0.00 0.00 0.00 59 1019.4
20260906040105 8 290 0.0 1.6 0.00 0.00 0.00 57 1019.3
20260906034604 9 71 0.0 1.6 0.00 0.00 0.00 55 1019.1
20260906033055 10 0 0.0 1.6 0.00 0.00 0.00 52 1018.9
20260906031557 11 0 0.0 1.6 0.00 0.00 0.00 52 1018.6
20260906030056 11 14 0.0 3.2 0.00 0.00 0.00 48 1018.4
20260906024557 12 39 0.0 1.6 0.00 0.00 0.00 48 1018.2
20260906023052 13 37 0.0 3.2 0.00 0.00 0.00 46 1017.7
20260906021602 15 0 0.0 3.2 0.00 0.00 0.00 42 1017.7
20260906020056 17 0 0.0 1.6 0.00 0.00 0.00 38 1017.5
20260906014554 20 25 0.0 1.6 0.00 0.00 0.00 32 1017.5
20260906013058 23 0 1.6 1.6 0.00 0.00 0.00 27 1017.6
20260906011555 23 0 0.0 4.8 0.00 0.00 0.00 26 1017.6
20260906010137 23 241 3.2 17.7 0.00 0.00 0.00 25 1017.4
20260906004616 24 145 6.4 17.7 0.00 0.00 0.00 24 1017.5
20260906003058 24 224 6.4 20.9 0.00 0.00 0.00 22 1017.3
20260906001604 25 237 8.0 19.3 0.00 0.00 0.00 22 1017.3
20260906000100 25 236 3.2 25.7 0.00 0.00 0.00 24 1017.3
20260905234604 25 154 6.4 27.4 0.00 0.00 0.00 23 1017.2
20260905233059 25 184 9.7 20.9 0.00 0.00 0.00 23 1017.1